Find Starlink 11388

NORAD ID: 62092 Int'l Des: 2024-220 Owner: SPXS Country: US Constellation: starlink operational
LEOCIRCULAR

リアルタイム位置

3D地球を読み込み中...

Starlink 11388について

説明を読み込み中...

次回通過

Passes for default location (London). Set your location on the main map for personalized predictions.

高度履歴

Loading altitude history...

軌道要素

1 62092U 24220E 26127.19483278 .00141887 00000-0 10866-2 0 9991
2 62092 43.0017 50.5019 0002118 277.7684 82.2944 15.70924185 84158
Epoch: May 7, 2026 • Age: 9 hours

現在のステータス

高度 359.7 km
速度 7.69 km/s
衛星直下点 -19.38°S, 172.85°W
打ち上げ日 Nov 25, 2024
運用期間 1.4 years
タイプ internet

技術仕様

分類 Payload
質量 960.00 kg
乾燥質量 910.00 kg
総質量 960.00 kg
長さ 0.30 m
直径 4.10 m
スパン 29.00 m
形状 Box + pan
製造者 SPXS
バスタイプ Starlink V2MD
フェーズステータス In Orbit
所有者/国 SPXS/US

Most Searched